This demonstration page uses our WeatherBlox Daily Observations layout. Learn more.

Left ArrowRight Arrow

44.31136, -96.79839

Hourly Observations for September 17, 2021

Temp ( °F °C ) Dew Point ( °F °C ) Humidity (%) Winds ( mph kmh ) Pressure ( in mb ) Visibility ( mi km ) Precip ( " mm )
12:07 am 00:07 Cloudy with Thunderstorms 61 16 54 12 77 77 NW 31 50 29.89 1012 7 11 0.01 0.25
12:11 am 00:11 Cloudy with Thunderstorms 59 15 54 12 82 82 NW 39 63 29.90 1012 4 6 0.03 0.76
12:19 am 00:19 Cloudy with Strong Thunderstorms 55 13 54 12 94 94 N 26 43 29.91 1013 3 5 0.12 3.05
12:23 am 00:23 Cloudy with Strong Thunderstorms 55 13 54 12 94 94 N 25 41 29.91 1013 5 8 0.14 3.56
12:56 am 00:56 Cloudy with Rain 55 12.8 53 11.7 93 93 N 23 37 29.97 1015 10 16 0.28 7.11
1:56 am 01:56 Cloudy with Light Rain 54 12.2 52 11.1 93 93 N 21 33 29.95 1014 10 16 0.21 5.33
2:47 am 02:47 Mostly Clear 55 13 52 11 88 88 N 18 30 29.96 1015 10 16 0.01 0.25
2:56 am 02:56 Mostly Clear 55 12.8 51 10.6 87 87 N 17 28 29.99 1016 10 16 0.01 0.25
3:56 am 03:56 Clear 54 12.2 49 9.4 83 83 Calm 30.08 1019 10 16 0.00 0.00
4:56 am 04:56 Clear 53 11.7 50 10 89 89 Calm 30.07 1018 10 16 0.00 0.00
5:56 am 05:56 Clear 51 10.6 49 9.4 92 92 W 6 9 30.14 1021 10 16 0.00 0.00
6:56 am 06:56 Mostly Cloudy 51 10.6 49 9.4 92 92 W 6 9 30.18 1022 10 16 0.00 0.00
7:56 am 07:56 Cloudy 52 11.1 48 8.9 86 86 WNW 6 9 30.21 1023 10 16 0.00 0.00
8:56 am 08:56 Sunny 54 12.2 48 8.9 80 80 NW 7 11 30.24 1024 10 16 0.00 0.00
9:56 am 09:56 Sunny 58 14.4 45 7.2 62 62 NNW 12 19 30.24 1024 10 16 0.00 0.00
10:56 am 10:56 Sunny 62 16.7 41 5 46 46 NNW 10 17 30.25 1025 10 16 0.00 0.00
11:56 am 11:56 Sunny 63 17.2 38 3.3 40 40 NNW 12 19 30.27 1025 10 16 0.00 0.00
12:56 pm 12:56 Sunny 64 17.8 39 3.9 40 40 NNW 14 22 30.27 1025 10 16 0.00 0.00
1:56 pm 13:56 Sunny 65 18.3 38 3.3 37 37 NW 8 13 30.26 1025 10 16 0.00 0.00
2:56 pm 14:56 Sunny 66 18.9 39 3.9 37 37 NW 12 19 30.25 1024 10 16 0.00 0.00
3:56 pm 15:56 Sunny 67 19.4 39 3.9 36 36 NW 14 22 30.24 1024 10 16 0.00 0.00
4:56 pm 16:56 Sunny 67 19.4 38 3.3 35 35 NW 6 9 30.24 1024 10 16 0.00 0.00
5:56 pm 17:56 Sunny 67 19.4 39 3.9 36 36 WNW 6 9 30.24 1024 10 16 0.00 0.00
6:56 pm 18:56 Sunny 65 18.3 41 5 42 42 W 3 6 30.25 1024 10 16 0.00 0.00
7:56 pm 19:56 Clear 60 15.6 41 5 50 50 Calm 30.25 1024 10 16 0.00 0.00
8:56 pm 20:56 Clear 58 14.4 43 6.1 58 58 ESE 6 9 30.24 1024 10 16 0.00 0.00
9:56 pm 21:56 Clear 56 13.3 43 6.1 62 62 SE 5 7 30.24 1024 10 16 0.00 0.00
10:56 pm 22:56 Clear 52 11.1 44 6.7 75 75 E 3 6 30.25 1024 10 16 0.00 0.00
11:56 pm 23:56 Clear 51 10.6 42 5.6 71 71 SE 8 13 30.24 1024 10 16 0.00 0.00

Powered by AerisWeather